This is the latest recevied weather packets stored in our database for station/object WC4PEM-4. If no packets are shown the sender has not sent any weather packets the latest 10 day(s).
| Time | Temp. | Humidity | Pressure | Rain* | Wind** | Luminosity | Snow |
|---|---|---|---|---|---|---|---|
| 1788279793 | 31.11° C | 69% | 1016.8 hPa | 0 mm | - | - | - |
| 1788279678 | 31.11° C | 69% | 1016.8 hPa | 0 mm | - | - | - |
| 1788279504 | 30.56° C | 68% | 1016.7 hPa | 0 mm | - | - | - |
| 1788279378 | 30.56° C | 68% | 1016.7 hPa | 0 mm | - | - | - |
| 1788279154 | 30.56° C | 70% | 1016.8 hPa | 0 mm | - | - | - |
| 1788279078 | 30.56° C | 70% | 1016.8 hPa | 0 mm | - | - | - |
| 1788278879 | 30.56° C | 71% | 1017.1 hPa | 0 mm | - | - | - |
| 1788278778 | 30.56° C | 71% | 1017.1 hPa | 0 mm | - | - | - |
| 1788278657 | 30.56° C | 72% | 1017.2 hPa | 0 mm | - | - | - |
| 1788278478 | 30.56° C | 72% | 1017.2 hPa | 0 mm | - | - | - |
| 1788278295 | 30.56° C | 72% | 1017.3 hPa | 0 mm | - | - | - |
| 1788278178 | 30.56° C | 72% | 1017.3 hPa | 0 mm | - | - | - |
| 1788277971 | 30.56° C | 71% | 1017.4 hPa | 0 mm | - | - | - |
| 1788277878 | 30.56° C | 71% | 1017.4 hPa | 0 mm | - | - | - |
| 1788277639 | 31.11° C | 70% | 1017.4 hPa | 0 mm | - | - | - |
| 1788277578 | 31.11° C | 70% | 1017.4 hPa | 0 mm | - | - | - |
| 1788277278 | 31.11° C | 68% | 1017.3 hPa | 0 mm | - | - | - |
| 1788277097 | 31.67° C | 71% | 1017.2 hPa | 0 mm | - | - | - |
| 1788276978 | 31.67° C | 71% | 1017.2 hPa | 0 mm | - | - | - |
| 1788276796 | 31.67° C | 69% | 1017 hPa | 0 mm | - | - | - |
| 1788276678 | 31.67° C | 69% | 1017 hPa | 0 mm | - | - | - |
| 1788276479 | 31.67° C | 71% | 1017 hPa | 0 mm | - | - | - |
| 1788276378 | 31.67° C | 71% | 1017 hPa | 0 mm | - | - | - |
| 1788276211 | 31.11° C | 72% | 1017.3 hPa | 0 mm | - | - | - |
| 1788276078 | 31.11° C | 72% | 1017.3 hPa | 0 mm | - | - | - |
* Rain latest hour (hover to see other rain measurements)
** Current wind speed in m/s (hover to see current wind gust speed)